This demonstration page uses our WeatherBlox Daily Observations layout. Learn more.

Left ArrowRight Arrow

39.12711, -84.51439

Hourly Observations for January 15, 2017

Temp ( °F °C ) Dew Point ( °F °C ) Humidity (%) Winds ( mph kmh ) Pressure ( in mb ) Visibility ( mi km ) Precip ( " mm )
12:02 am 00:02 Cloudy 36 2 34 1 93 93 N 6 9 30.48 1032 7 11 0.00 0.00
12:53 am 00:53 Cloudy with Mist and Fog 36 2.2 33 0.6 89 89 N 6 9 30.45 1031 5 8 0.00 0.00
1:53 am 01:53 Cloudy with Mist and Fog 35 1.7 33 0.6 93 93 NE 3 6 30.44 1031 5 8 0.00 0.00
2:53 am 02:53 Cloudy with Mist and Fog 35 1.7 33 0.6 93 93 N 5 7 30.45 1031 5 8 0.00 0.00
3:53 am 03:53 Cloudy with Mist and Fog 35 1.7 33 0.6 93 93 N 7 11 30.45 1031 5 8 0.00 0.00
4:53 am 04:53 Cloudy with Mist and Fog 35 1.7 33 0.6 93 93 N 7 11 30.43 1031 4 6 0.00 0.00
5:08 am 05:08 Cloudy with Mist and Fog 36 2 34 1 93 93 N 7 11 30.45 1031 3 5 0.00 0.00
5:53 am 05:53 Cloudy with Mist and Fog 34 1.1 33 0.6 97 97 NNE 7 11 30.44 1031 4 6 0.00 0.00
6:53 am 06:53 Cloudy with Mist and Fog 34 1.1 33 0.6 97 97 NNE 7 11 30.44 1031 3 5 0.00 0.00
7:53 am 07:53 Cloudy with Mist and Fog 34 1.1 33 0.6 97 97 NNE 5 7 30.44 1031 3 5 0.00 0.00
8:28 am 08:28 Cloudy with Mist and Fog 34 1 34 1 100 100 NE 5 7 30.48 1032 3 4 0.00 0.00
8:53 am 08:53 Cloudy with Mist and Fog 35 1.7 33 0.6 93 93 NNE 5 7 30.45 1031 2 3 0.00 0.00
9:01 am 09:01 Cloudy with Mist and Fog 35 1.7 33 0.6 93 93 NE 5 7 30.48 1032 2 3 0.00 0.00
9:53 am 09:53 Cloudy with Mist and Fog 35 1.7 33 0.6 93 93 NE 6 9 30.45 1031 3 4 0.00 0.00
10:53 am 10:53 Cloudy with Mist and Fog 36 2.2 34 1.1 93 93 NE 5 7 30.46 1031 3 4 0.00 0.00
11:38 am 11:38 Cloudy with Mist and Fog 37 3 36 2 93 93 Calm 30.45 1031 3 5 0.00 0.00
11:53 am 11:53 Cloudy with Mist and Fog 37 2.8 34 1.1 89 89 NNW 3 6 30.43 1031 3 5 0.00 0.00
12:53 pm 12:53 Cloudy with Mist and Fog 38 3.3 35 1.7 89 89 NNW 6 9 30.41 1030 4 6 0.00 0.00
1:53 pm 13:53 Cloudy with Light Rain 38 3.3 35 1.7 89 89 ENE 5 7 30.37 1028 4 6 0.01 0.25
2:53 pm 14:53 Cloudy with Light Rain 38 3.3 36 2.2 93 93 NNE 3 6 30.37 1028 4 6 0.01 0.25
3:53 pm 15:53 Cloudy with Mist and Fog 38 3.3 37 2.8 97 97 NE 6 9 30.36 1028 3 5 0.01 0.25
4:23 pm 16:23 Cloudy with Light Rain 39 3.9 37 2.8 93 93 NE 7 11 30.36 1028 3 5 0.01 0.25
4:53 pm 16:53 Cloudy with Light Rain 38 3.3 37 2.8 97 97 NE 5 7 30.36 1028 3 4 0.01 0.25
5:53 pm 17:53 Cloudy with Light Rain 38 3.3 37 2.8 97 97 NNE 5 7 30.36 1028 3 4 0.01 0.25
6:53 pm 18:53 Cloudy with Light Rain 38 3.3 37 2.8 97 97 NNE 3 6 30.37 1028 3 5 0.00 0.03
7:53 pm 19:53 Cloudy with Light Rain 38 3.3 38 3.3 100 100 Calm 30.36 1028 4 6 0.00 0.03
8:53 pm 20:53 Cloudy with Mist and Fog 38 3.3 38 3.3 100 100 Calm 30.37 1028 4 6 0.01 0.25
9:53 pm 21:53 Cloudy with Mist and Fog 38 3.3 38 3.3 100 100 ENE 5 7 30.36 1028 3 5 0.00 0.03
10:03 pm 22:03 Cloudy with Mist and Fog 38 3.3 38 3.3 100 100 ENE 3 6 30.36 1028 3 4 0.00 0.00
10:53 pm 22:53 Cloudy with Mist and Fog 38 3.3 38 3.3 100 100 NE 5 7 30.36 1028 3 5 0.00 0.03
11:53 pm 23:53 Cloudy with Mist and Fog 38 3.3 38 3.3 100 100 ENE 5 7 30.34 1028 3 5 0.00 0.03

Powered by AerisWeather